Location: Unspecified
(0.0000°N, 0.0000°E)
Time: 16:40:49
(UTC+00:00)

Vanguard 3 - Pass Details

Date: 06 February 2023
Orbit: 509 x 3249 km, 33.3° (Epoch: 20 March)

Event Time Altitude Azimuth Distance (km) Brightness Sun altitude
Rises 01:37:29 0° 307° (NW) 6,790 - -64.1°
Reaches altitude 10° 01:41:42 10° 307° (NW) 5,961 - -63.2°
Maximum altitude 02:01:45 88° 37° (NE) 3,158 - -59.1°
Exits shadow 02:07:13 58° 124° (SE) 3,335 10.0 -57.9°
Drops below altitude 10° 02:18:29 10° 126° (SE) 5,119 11.6 -55.5°
Sets 02:21:47 0° 126° (SE) 5,836 12.1 -54.8°
